Location: Arrington
(35.8681°N, 86.7092°W)
Time: 03:53:24
(UTC+00:00)

X-37B - Visible Passes

Search period start: 19 September 2020 00:00
Search period end: 29 September 2020 00:00
Orbit: 386 x 387 km, 45.0° (Epoch: 18 September)

Date Brightness Start Highest point End Pass type
(mag) Time Alt. Az. Time Alt. Az. Time Alt. Az.
19 Sep 3.1 10:10:31 12° NNW 10:12:04 16° N 10:14:12 10° NE visible
20 Sep 3.8 09:14:40 12° NNE 09:14:40 12° NNE 09:15:14 10° NE visible
20 Sep 2.5 10:47:49 10° NW 10:50:34 26° NNE 10:53:17 10° ENE visible
21 Sep 2.8 09:51:10 18° N 09:51:46 19° NNE 09:54:11 10° ENE visible
22 Sep 1.8 10:27:46 15° NW 10:30:08 39° NNE 10:33:09 10° E visible
23 Sep 3.0 09:32:12 23° NE 09:32:12 23° NE 09:34:09 10° ENE visible
23 Sep 0.8 11:05:05 10° WNW 11:08:12 55° SW 11:11:19 10° SE visible
24 Sep 0.7 10:09:04 53° NW 10:09:39 72° NNE 10:12:49 10° ESE visible
25 Sep 4.0 09:13:47 12° E 09:13:47 12° E 09:14:01 10° E visible
25 Sep 1.8 10:46:06 19° W 10:47:33 26° SW 10:50:16 10° SSE visible
26 Sep 2.7 09:50:58 21° SE 09:50:58 21° SE 09:52:11 10° SE visible
27 Sep 3.2 10:28:19 10° SSW 10:28:19 10° SSW 10:28:23 10° SSW visible
